Regional Weather Roundup
Issued by NWS Kansas City/Pleasant Hill, MO

Home | Current Version | Previous Version | Graphics & Text | Print | Product List | Glossary Off
Versions: 1 2 3 4 5 6 7 8 9 10 11 12 13 14 15 16 17 18 19 20 21 22 23 24 25 26 27 28 29 30 31 32 33 34 35 36 37 38 39 40 41 42 43 44 45 46 47 48 49 50

267
ASUS43 KEAX 211010
RWREAX

WEATHER ROUNDUP FOR EASTERN KANSAS AND NORTHWEST MISSOURI
NATIONAL WEATHER SERVICE KANSAS CITY/PLEASANT HILL MO
500 AM CDT SAT OCT 21 2017

KSZ040-057-103>105-MOZ028-029-037-043-211100-
...KANSAS CITY METROPOLITAN AREA...

CITY           SKY/WX    TMP DP  RH WIND       PRES   REMARKS
K.C. INTL      CLOUDY    65  58  78 S23G31    29.80S
K.C. DOWNTOWN  CLOUDY    67  58  72 S15G26    29.82F
LEES SUMMIT    MOCLDY    64  57  78 S21G30    29.85S
OLATHE - IXD   CLOUDY    63  57  81 S16G22    29.83S
OLATHE - OJC   CLOUDY    63  57  81 S17G25    29.83S
LAWRENCE       CLOUDY    65  59  81 S15G28    29.80F

$$

MOZ001>008-011>017-020>025-030>033-038>040-044>046-053-054-211100-
...NORTHERN AND CENTRAL MISSOURI...

CITY           SKY/WX    TMP DP  RH WIND       PRES   REMARKS
ST. JOSEPH     LGT RAIN  66  59  78 S21G30    29.77F
MOSBY          PTSUNNY   64  55  72 S13       29.84R
WARRENSBURG    MOCLDY    63  55  77 SE10G17   29.88S
WHITEMAN AFB   CLEAR     63  56  79 S16G23    29.85S
CLINTON        CLOUDY    64  55  72 S10       29.91S
SEDALIA        PTCLDY    65  57  75 S16G24    29.91F
WARSAW         NOT AVBL
CHILLICOTHE      N/A     64  58  80 S10G17    29.86F
KIRKSVILLE     PTCLDY    62  57  83 S13       29.91S

$$

MOZ041-047>049-056>058-063>065-088>090-097-211100-
...EASTERN AND SOUTHERN MISSOURI...

CITY           SKY/WX    TMP DP  RH WIND       PRES   REMARKS
ST. LOUIS INTL MOCLDY    63  53  70 SE10      30.04F
SPIRIT OF STL  CLOUDY    64  54  69 CALM      30.02S
COLUMBIA       MOCLDY    62  55  77 S13       29.95F
JEFFERSON CITY MOCLDY    64  53  67 SE8       29.96F
ROLLA          CLOUDY    64  54  69 S13       30.01S
OSAGE BEACH    MOCLDY    64  55  72 S8        29.97F
SPRINGFIELD    CLEAR     62  57  83 S18G25    29.95F
BRANSON        CLOUDY    64  57  77 SE7       30.01F
WEST PLAINS    LGT RAIN  61  56  83 S7        30.07R

$$

IAZ060-094-KSZ022-034>040-054-083-096-NEZ052-066-093-211100-
...KANSAS...SOUTHEAST NEBRASKA AND IOWA...

CITY           SKY/WX    TMP DP  RH WIND       PRES   REMARKS
TOPEKA         CLOUDY    67  61  81 S17G24    29.77S
MANHATTAN      CLOUDY    68  62  81 S17G29    29.69F
EMPORIA        CLOUDY    64  59  83 S23G31    29.78S
CHANUTE        CLOUDY    66  58  75 S22G31    29.85F
WICHITA        CLOUDY    68  64  87 S21G30    29.73F
OMAHA          CLOUDY    65  60  84 S20G26    29.62S
LINCOLN        CLOUDY    69  61  75 S29G38    29.58S
FALLS CITY     CLOUDY    68  60  75 S20G31    29.71S
LAMONI         LGT RAIN  63  57  81 S15G29    29.80F
DES MOINES     LGT RAIN  64  58  80 S16       29.77R

$$





USA.gov is the U.S. government's official web portal to all federal, state and local government web resources and services.